FW6650 Weather Reports


time (UTC)temp
F
wind
direction
speed
knots
gust
knots
rain 1hr
in
rain 24hr
in
rain mn
in
humidity
%
barometer
mb
20260508005026 63 0 0.0 1.7 0.00 0.00 0.00 62 1016.1
20260508004540 63 0 0.0 1.7 0.00 0.00 0.00 62 1016.1
20260508004026 63 325 0.0 2.6 0.00 0.00 0.00 62 1016.1
20260508003526 63 0 0.0 2.6 0.00 0.00 0.00 62 1016.1
20260508003042 63 325 0.0 2.6 0.00 0.00 0.00 62 1016.1
20260508002526 63 325 0.9 2.6 0.00 0.00 0.00 62 1016.2
20260508002026 63 0 0.0 1.7 0.00 0.00 0.00 61 1016.1
20260508001537 63 322 0.0 2.6 0.00 0.00 0.00 61 1016.2
20260508001026 63 322 0.9 2.6 0.00 0.00 0.00 61 1016.1
20260508000530 63 0 0.0 2.6 0.00 0.00 0.00 60 1016.2
20260508000053 64 0 0.0 2.6 0.00 0.00 0.00 59 1016.3
20260507235526 64 321 0.9 2.6 0.00 0.00 0.00 59 1016.3
20260507235026 64 320 0.0 1.7 0.00 0.00 0.00 58 1016.3
20260507234543 64 0 0.0 0.0 0.00 0.00 0.00 58 1016.5
20260507234027 64 0 0.0 0.9 0.00 0.00 0.00 57 1016.7
20260507233529 64 0 0.0 1.7 0.00 0.00 0.00 56 1016.8
20260507233037 64 0 0.0 1.7 0.00 0.00 0.00 56 1016.7
20260507232524 64 0 0.0 2.6 0.00 0.00 0.00 54 1016.7
20260507232025 64 0 0.9 2.6 0.00 0.00 0.00 54 1016.8
20260507231537 64 0 0.0 0.0 0.00 0.00 0.00 52 1016.7
20260507231026 64 0 0.0 0.0 0.00 0.00 0.00 51 1016.6
20260507230528 64 0 0.0 0.0 0.00 0.00 0.00 51 1016.6
20260507230038 64 0 0.0 0.0 0.00 0.00 0.00 51 1016.8
20260507225526 64 0 0.0 0.0 0.00 0.00 0.00 51 1016.8
20260507225026 64 0 0.0 1.7 0.00 0.00 0.00 52 1016.9
20260507224535 64 0 0.0 1.7 0.00 0.00 0.00 51 1017.0
20260507224030 64 319 0.0 2.6 0.00 0.00 0.00 52 1016.9
20260507223529 64 0 0.0 2.6 0.00 0.00 0.00 52 1017.0
20260507223040 64 319 0.0 2.6 0.00 0.00 0.00 52 1017.0
20260507222526 64 319 0.9 2.6 0.00 0.00 0.00 52 1017.0
20260507222025 64 313 0.9 3.5 0.00 0.00 0.00 52 1017.0
20260507221534 65 313 1.7 3.5 0.00 0.00 0.00 51 1017.1
20260507221025 65 0 0.0 1.7 0.00 0.00 0.00 52 1017.1
20260507220527 65 0 0.0 2.6 0.00 0.00 0.00 52 1017.2
20260507220033 65 312 0.0 2.6 0.00 0.00 0.00 52 1017.2
20260507215526 65 311 0.0 1.7 0.00 0.00 0.00 51 1017.3
20260507215025 65 0 0.0 1.7 0.00 0.00 0.00 51 1017.4
20260507214539 65 0 0.0 2.6 0.00 0.00 0.00 51 1017.5
20260507214026 65 0 0.9 2.6 0.00 0.00 0.00 51 1017.5
20260507213529 65 311 0.0 1.7 0.00 0.00 0.00 51 1017.4
20260507213040 65 0 0.9 1.7 0.00 0.00 0.00 49 1017.4
20260507212526 65 0 0.0 0.9 0.00 0.00 0.00 51 1017.6
20260507212028 65 0 0.0 0.9 0.00 0.00 0.00 51 1017.7
20260507211547 65 0 0.0 0.9 0.00 0.00 0.00 51 1017.6
20260507211025 65 0 0.0 0.9 0.00 0.00 0.00 50 1017.5
20260507210526 65 0 0.0 0.9 0.00 0.00 0.00 49 1017.6
20260507210038 65 0 0.0 0.0 0.00 0.00 0.00 49 1017.5
20260507205523 65 0 0.0 0.0 0.00 0.00 0.00 49 1017.5
20260507205022 65 0 0.0 0.9 0.00 0.00 0.00 49 1017.5
20260507204535 65 0 0.0 1.7 0.00 0.00 0.00 49 1017.5
20260507204026 65 311 0.0 1.7 0.00 0.00 0.00 49 1017.6
20260507203526 65 313 0.0 1.7 0.00 0.00 0.00 49 1017.6
20260507203036 65 0 0.0 1.7 0.00 0.00 0.00 49 1017.6
20260507202526 65 0 0.0 1.7 0.00 0.00 0.00 49 1017.5
20260507202026 65 313 0.0 1.7 0.00 0.00 0.00 49 1017.6
20260507201535 65 0 0.0 2.6 0.00 0.00 0.00 48 1017.6
20260507201026 65 314 0.0 2.6 0.00 0.00 0.00 48 1017.5
20260507200525 65 0 0.0 1.7 0.00 0.00 0.00 48 1017.3
20260507200041 65 315 0.0 0.9 0.00 0.00 0.00 48 1017.4
20260507195526 65 28 0.0 2.6 0.00 0.00 0.00 48 1017.3
20260507195026 65 0 0.0 3.5 0.00 0.00 0.00 49 1017.4
20260507194539 65 28 0.9 3.5 0.00 0.00 0.00 48 1017.3
20260507194025 65 27 1.7 3.5 0.00 0.00 0.00 47 1017.2
20260507193522 66 360 0.9 2.6 0.00 0.00 0.00 47 1017.2
20260507193037 66 0 0.0 0.0 0.00 0.00 0.00 48 1017.2
20260507192523 66 0 0.0 0.0 0.00 0.00 0.00 48 1017.2
20260507192022 66 0 0.0 0.9 0.00 0.00 0.00 48 1017.2
20260507191533 66 0 0.0 2.6 0.00 0.00 0.00 47 1017.2
20260507191025 66 360 0.0 2.6 0.00 0.00 0.00 47 1017.2
20260507190524 66 360 0.9 3.5 0.00 0.00 0.00 46 1017.1
20260507190038 66 360 1.7 3.5 0.00 0.00 0.00 46 1017.2
20260507185527 66 360 0.9 3.5 0.00 0.00 0.00 47 1017.3
20260507185027 66 360 0.9 3.5 0.00 0.00 0.00 49 1017.4
20260507184541 66 360 1.7 3.5 0.00 0.00 0.00 49 1017.3
20260507184029 67 13 0.9 2.6 0.00 0.00 0.00 48 1017.2
20260507183525 67 0 0.0 1.7 0.00 0.00 0.00 48 1017.1
20260507183036 67 15 0.0 2.6 0.00 0.00 0.00 48 1017.0
20260507182523 67 15 0.0 2.6 0.00 0.00 0.00 47 1017.0
20260507182026 67 0 0.0 2.6 0.00 0.00 0.00 47 1017.1
20260507181533 67 0 0.9 3.5 0.00 0.00 0.00 48 1017.0
20260507181026 67 0 0.0 3.5 0.00 0.00 0.00 48 1017.0
20260507180528 67 13 0.9 3.5 0.00 0.00 0.00 48 1017.0
20260507180033 67 294 0.0 1.7 0.00 0.00 0.00 48 1017.0
20260507175527 67 0 0.0 3.5 0.00 0.00 0.00 47 1017.1
20260507175027 67 293 0.9 3.5 0.00 0.00 0.00 49 1017.0
20260507174546 67 282 0.9 2.6 0.00 0.00 0.00 49 1016.8
20260507174027 67 281 1.7 3.5 0.00 0.00 0.00 49 1016.8
20260507173529 67 0 0.0 3.5 0.00 0.00 0.00 50 1017.0
20260507173040 67 278 1.7 3.5 0.00 0.00 0.00 50 1016.9
20260507172526 67 277 0.9 6.1 0.00 0.00 0.00 49 1016.8
20260507172027 67 0 1.7 6.1 0.00 0.00 0.00 49 1016.9
20260507171550 67 268 2.6 7.0 0.00 0.00 0.00 50 1016.8
20260507171028 68 278 3.5 7.0 0.00 0.00 0.00 50 1016.7
20260507170528 68 254 2.6 5.2 0.00 0.00 0.00 50 1016.6
20260507170035 69 229 2.6 5.2 0.00 0.00 0.00 48 1016.3
20260507165528 69 109 0.0 7.0 0.00 0.00 0.00 47 1016.2
20260507165027 68 109 2.6 10.4 0.00 0.00 0.00 48 1016.1
20260507164538 68 69 4.3 10.4 0.00 0.00 0.00 51 1016.0
20260507164028 68 85 4.3 10.4 0.00 0.00 0.00 51 1016.2
20260507163528 69 92 3.5 9.6 0.00 0.00 0.00 49 1016.3
20260507163033 69 85 2.6 7.0 0.00 0.00 0.00 47 1016.3
20260507162527 69 360 2.6 7.0 0.00 0.00 0.00 45 1016.5
20260507162027 70 360 1.7 7.0 0.00 0.00 0.00 43 1016.6
20260507161545 70 360 3.5 7.0 0.00 0.00 0.00 41 1016.5
20260507161028 71 360 0.9 2.6 0.00 0.00 0.00 36 1016.5
20260507160527 71 0 0.0 2.6 0.00 0.00 0.00 34 1016.5
20260507160059 72 360 0.0 3.5 0.00 0.00 0.00 29 1016.4
20260507155527 72 214 0.9 7.0 0.00 0.00 0.00 30 1016.5
20260507155028 72 0 1.7 8.7 0.00 0.00 0.00 29 1016.6
20260507154536 72 360 3.5 10.4 0.00 0.00 0.00 29 1016.6
20260507154028 73 247 3.5 10.4 0.00 0.00 0.00 29 1016.7
20260507153527 73 229 3.5 9.6 0.00 0.00 0.00 29 1016.6
20260507153036 73 267 6.1 10.4 0.00 0.00 0.00 30 1016.7
20260507152527 73 243 5.2 12.2 0.00 0.00 0.00 30 1016.8
20260507152028 73 215 6.1 12.2 0.00 0.00 0.00 30 1016.8
20260507151535 73 223 5.2 11.3 0.00 0.00 0.00 31 1016.7
20260507151027 73 249 6.1 11.3 0.00 0.00 0.00 30 1016.7
20260507150530 74 252 4.3 9.6 0.00 0.00 0.00 30 1016.7
20260507150039 73 254 5.2 11.3 0.00 0.00 0.00 30 1016.7
20260507145528 73 256 4.3 13.0 0.00 0.00 0.00 31 1016.6
20260507145031 73 233 5.2 13.0 0.00 0.00 0.00 30 1016.7
20260507144537 73 240 8.7 12.2 0.00 0.00 0.00 29 1016.8
20260507144028 74 252 5.2 12.2 0.00 0.00 0.00 30 1016.6
20260507143528 74 241 5.2 11.3 0.00 0.00 0.00 29 1016.7
20260507143042 74 263 6.1 10.4 0.00 0.00 0.00 31 1016.6
20260507142528 74 243 5.2 12.2 0.00 0.00 0.00 31 1016.7
20260507142031 74 211 6.1 13.0 0.00 0.00 0.00 31 1016.8
20260507141542 74 248 6.1 13.0 0.00 0.00 0.00 30 1016.7
20260507141027 75 269 6.1 13.0 0.00 0.00 0.00 29 1016.6
20260507140527 75 265 5.2 14.8 0.00 0.00 0.00 29 1016.4
20260507140046 75 231 7.8 14.8 0.00 0.00 0.00 28 1016.2
20260507135528 76 262 3.5 13.9 0.00 0.00 0.00 28 1016.3
20260507135030 76 259 7.0 13.9 0.00 0.00 0.00 28 1016.2
20260507134536 76 261 4.3 11.3 0.00 0.00 0.00 29 1016.1
20260507134027 76 238 6.1 11.3 0.00 0.00 0.00 27 1016.1
20260507133527 76 257 5.2 9.6 0.00 0.00 0.00 26 1016.0
20260507133034 76 244 2.6 9.6 0.00 0.00 0.00 26 1016.1
20260507132527 76 253 3.5 9.6 0.00 0.00 0.00 26 1016.2
20260507132028 76 262 5.2 9.6 0.00 0.00 0.00 26 1016.0
20260507131605 76 235 3.5 9.6 0.00 0.00 0.00 24 1016.1
20260507131028 75 219 5.2 9.6 0.00 0.00 0.00 29 1016.3
20260507130528 75 266 4.3 9.6 0.00 0.00 0.00 30 1016.2
20260507130035 74 260 4.3 9.6 0.00 0.00 0.00 32 1016.4
20260507125528 74 252 4.3 10.4 0.00 0.00 0.00 32 1016.5
20260507125028 74 241 6.1 10.4 0.00 0.00 0.00 32 1016.6
20260507124550 74 259 4.3 10.4 0.00 0.00 0.00 32 1016.7
20260507124027 74 253 6.1 11.3 0.00 0.00 0.00 31 1016.7
20260507123527 74 272 6.1 11.3 0.00 0.00 0.00 29 1016.8
20260507123041 75 229 4.3 11.3 0.00 0.00 0.00 31 1016.7
20260507122527 75 224 4.3 11.3 0.00 0.00 0.00 31 1016.8
20260507122027 75 240 7.0 13.0 0.00 0.00 0.00 29 1016.9
20260507121536 76 223 7.0 13.0 0.00 0.00 0.00 27 1016.9
20260507121028 76 231 7.0 13.0 0.00 0.00 0.00 25 1017.0
20260507120529 77 213 6.1 12.2 0.00 0.00 0.00 26 1017.0
20260507120040 77 221 5.2 11.3 0.00 0.00 0.00 28 1016.8
20260507115627 77 254 4.3 12.2 0.00 0.00 0.00 25 1016.8
20260507115027 76 240 7.8 12.2 0.00 0.00 0.00 28 1016.8
20260507114539 76 265 7.0 13.0 0.00 0.00 0.00 29 1017.0
20260507114028 75 263 5.2 13.0 0.00 0.00 0.00 35 1017.0
20260507113528 75 243 7.8 13.0 0.00 0.00 0.00 33 1017.0
20260507113102 76 255 6.1 15.6 0.00 0.00 0.00 37 1017.0
20260507112530 76 205 8.7 15.6 0.00 0.00 0.00 34 1017.0
20260507112027 77 244 6.1 17.4 0.00 0.00 0.00 36 1017.1
20260507111536 77 220 5.2 17.4 0.00 0.00 0.00 31 1017.1
20260507111027 77 223 6.1 13.9 0.00 0.00 0.00 28 1017.1
20260507110527 75 268 7.0 13.9 0.00 0.00 0.00 38 1016.8
20260507110044 76 225 7.8 13.9 0.00 0.00 0.00 35 1017.0
20260507105527 77 236 7.0 13.0 0.00 0.00 0.00 32 1017.2
20260507105027 76 264 5.2 14.8 0.00 0.00 0.00 33 1017.1
20260507104556 75 246 9.6 14.8 0.00 0.00 0.00 33 1017.0
20260507104027 76 236 6.1 12.2 0.00 0.00 0.00 40 1016.9
20260507103526 75 240 6.1 11.3 0.00 0.00 0.00 43 1016.7
20260507103040 75 220 4.3 10.4 0.00 0.00 0.00 45 1016.6
20260507102530 75 247 4.3 10.4 0.00 0.00 0.00 47 1016.5
20260507102027 75 249 6.1 10.4 0.00 0.00 0.00 49 1016.6
20260507101536 75 269 3.5 10.4 0.00 0.00 0.00 51 1016.7
20260507101026 75 259 3.5 10.4 0.00 0.00 0.00 52 1016.7
20260507100526 74 250 5.2 10.4 0.00 0.00 0.00 53 1016.7
20260507100043 74 290 5.2 10.4 0.00 0.00 0.00 53 1016.8
20260507095527 75 217 3.5 9.6 0.00 0.00 0.00 53 1016.8
20260507095030 74 247 4.3 10.4 0.00 0.00 0.00 53 1016.8
20260507094537 74 277 4.3 10.4 0.00 0.00 0.00 53 1016.8
20260507094028 75 222 4.3 9.6 0.00 0.00 0.00 53 1016.7
20260507093527 74 218 2.6 8.7 0.00 0.00 0.00 51 1016.8
20260507093038 75 213 4.3 8.7 0.00 0.00 0.00 48 1016.8
20260507092527 75 300 1.7 8.7 0.00 0.00 0.00 47 1016.7
20260507092027 74 231 3.5 8.7 0.00 0.00 0.00 48 1016.7
20260507091543 74 271 5.2 9.6 0.00 0.00 0.00 48 1016.8
20260507091027 74 244 5.2 9.6 0.00 0.00 0.00 47 1016.8
20260507090527 74 236 4.3 8.7 0.00 0.00 0.00 47 1016.6
20260507090040 74 253 1.7 5.2 0.00 0.00 0.00 45 1016.6
20260507085526 74 196 1.7 5.2 0.00 0.00 0.00 45 1016.7
20260507085027 73 198 0.0 5.2 0.00 0.00 0.00 47 1016.7
20260507084549 74 216 1.7 5.2 0.00 0.00 0.00 46 1016.8
20260507084027 73 238 0.9 4.3 0.00 0.00 0.00 47 1016.8
20260507083527 73 220 0.9 4.3 0.00 0.00 0.00 46 1016.7
20260507083036 72 248 1.7 5.2 0.00 0.00 0.00 47 1016.7
20260507082528 73 281 0.9 5.2 0.00 0.00 0.00 47 1016.7
20260507082027 73 259 0.9 7.8 0.00 0.00 0.00 47 1016.7
20260507081539 72 279 2.6 7.8 0.00 0.00 0.00 48 1016.7
20260507081027 72 272 4.3 7.8 0.00 0.00 0.00 48 1016.7
20260507080526 72 261 2.6 6.1 0.00 0.00 0.00 48 1016.8
20260507080040 72 222 2.6 5.2 0.00 0.00 0.00 47 1016.7
20260507075527 72 232 0.9 6.1 0.00 0.00 0.00 47 1016.7
20260507075027 71 241 2.6 6.1 0.00 0.00 0.00 46 1016.7
20260507074541 72 0 0.0 3.5 0.00 0.00 0.00 46 1016.6
20260507074026 71 262 0.9 3.5 0.00 0.00 0.00 47 1016.6
20260507073526 71 265 0.9 5.2 0.00 0.00 0.00 48 1016.6
20260507073037 70 265 1.7 5.2 0.00 0.00 0.00 48 1016.4
20260507072527 70 262 0.9 3.5 0.00 0.00 0.00 49 1016.4
20260507072026 70 286 0.9 3.5 0.00 0.00 0.00 50 1016.4
20260507071537 71 280 0.0 3.5 0.00 0.00 0.00 48 1016.5
20260507071027 70 276 0.9 3.5 0.00 0.00 0.00 51 1016.7
20260507070527 69 0 0.0 3.5 0.00 0.00 0.00 51 1016.6
20260507070033 69 268 0.9 5.2 0.00 0.00 0.00 51 1016.6
20260507065527 69 269 2.6 5.2 0.00 0.00 0.00 51 1016.7
20260507065027 70 227 0.9 3.5 0.00 0.00 0.00 50 1016.7
20260507064546 70 235 0.9 5.2 0.00 0.00 0.00 49 1016.7
20260507064027 69 242 1.7 5.2 0.00 0.00 0.00 50 1016.5
20260507063528 68 264 0.9 6.1 0.00 0.00 0.00 50 1016.5
20260507063033 68 229 2.6 6.1 0.00 0.00 0.00 49 1016.5
20260507062527 68 244 3.5 6.1 0.00 0.00 0.00 48 1016.5
20260507062027 68 218 3.5 7.0 0.00 0.00 0.00 50 1016.4
20260507061538 68 225 3.5 7.0 0.00 0.00 0.00 53 1016.4
20260507061027 68 241 3.5 7.0 0.00 0.00 0.00 54 1016.3
20260507060527 68 263 1.7 6.1 0.00 0.00 0.00 54 1016.3
20260507060040 68 191 3.5 6.1 0.00 0.00 0.00 53 1016.2
20260507055528 68 185 4.3 6.1 0.00 0.00 0.00 54 1016.1
20260507055028 69 228 2.6 4.3 0.00 0.00 0.00 53 1016.1
20260507054540 68 0 0.0 2.6 0.00 0.00 0.00 55 1015.9
20260507054026 67 0 0.0 2.6 0.00 0.00 0.00 57 1015.8
20260507053526 66 360 0.9 3.5 0.00 0.00 0.00 57 1015.7
20260507053041 66 0 0.9 3.5 0.00 0.00 0.00 58 1015.7
20260507052529 65 5 1.7 3.5 0.00 0.00 0.00 58 1015.7
20260507052027 65 23 1.7 2.6 0.00 0.00 0.00 58 1015.7
20260507051534 65 0 0.0 2.6 0.00 0.00 0.00 59 1015.7
20260507051026 64 0 0.9 2.6 0.00 0.00 0.00 60 1015.7
20260507050526 63 68 0.9 2.6 0.00 0.00 0.00 61 1015.6
20260507050058 63 68 0.9 2.6 0.00 0.00 0.00 61 1015.7
20260507045527 63 68 0.0 2.6 0.00 0.00 0.00 63 1015.8
20260507045027 62 69 0.9 2.6 0.00 0.00 0.00 63 1015.8
20260507044546 62 69 0.9 1.7 0.00 0.00 0.00 64 1015.7
20260507044026 62 69 0.9 1.7 0.00 0.00 0.00 65 1015.7
20260507043529 62 70 0.0 1.7 0.00 0.00 0.00 65 1015.7
20260507043033 62 0 0.0 1.7 0.00 0.00 0.00 66 1015.7
20260507042527 61 70 0.0 1.7 0.00 0.00 0.00 66 1015.6
20260507042026 60 0 0.0 0.0 0.00 0.00 0.00 66 1015.6
20260507041537 60 0 0.0 0.0 0.00 0.00 0.00 66 1015.7
20260507041030 60 0 0.0 0.9 0.00 0.00 0.00 67 1015.8
20260507040527 59 0 0.0 3.5 0.00 0.00 0.00 67 1015.8
20260507040039 59 0 0.0 3.5 0.00 0.00 0.00 67 1015.9
20260507035527 59 70 1.7 3.5 0.00 0.00 0.00 68 1015.8
20260507035029 58 67 1.7 3.5 0.00 0.00 0.00 69 1016.0
20260507034539 58 42 0.9 2.6 0.00 0.00 0.00 69 1016.0
20260507034026 58 0 0.0 0.0 0.00 0.00 0.00 69 1015.7
20260507033526 58 0 0.0 0.0 0.00 0.00 0.00 68 1015.7
20260507033040 59 0 0.0 2.6 0.00 0.00 0.00 68 1015.6
20260507032526 59 0 0.0 2.6 0.00 0.00 0.00 68 1015.5
20260507032027 59 40 0.9 2.6 0.00 0.00 0.00 67 1015.5
20260507031536 59 0 0.0 0.9 0.00 0.00 0.00 66 1015.6
20260507031031 59 0 0.0 1.7 0.00 0.00 0.00 66 1015.5
20260507030527 59 0 0.0 1.7 0.00 0.00 0.00 66 1015.5
20260507030038 59 0 0.0 2.6 0.00 0.00 0.00 66 1015.5
20260507025527 59 0 0.0 3.5 0.00 0.00 0.00 66 1015.4
20260507025027 60 27 1.7 3.5 0.00 0.00 0.00 65 1015.4
20260507024546 60 29 1.7 3.5 0.00 0.00 0.00 65 1015.3
20260507024026 60 0 0.0 4.3 0.00 0.00 0.00 64 1015.4
20260507023527 60 0 0.9 4.3 0.00 0.00 0.00 64 1015.3
20260507023038 60 144 1.7 4.3 0.00 0.00 0.00 64 1015.4
20260507022527 60 0 0.9 3.5 0.00 0.00 0.00 63 1015.4
20260507022027 60 208 1.7 5.2 0.00 0.00 0.00 63 1015.3
20260507021547 60 207 1.7 6.1 0.00 0.00 0.00 62 1015.3
20260507021027 60 206 2.6 6.1 0.00 0.00 0.00 63 1015.3
20260507020527 60 188 3.5 6.1 0.00 0.00 0.00 62 1015.2
20260507020036 60 200 3.5 6.1 0.00 0.00 0.00 61 1015.3
20260507015526 60 205 3.5 6.1 0.00 0.00 0.00 61 1015.3
20260507015026 60 194 2.6 6.1 0.00 0.00 0.00 61 1015.2
20260507014540 60 194 3.5 5.2 0.00 0.00 0.00 61 1015.2
20260507014029 60 205 3.5 5.2 0.00 0.00 0.00 61 1015.2
20260507013526 60 198 2.6 4.3 0.00 0.00 0.00 62 1015.1
20260507013038 60 205 1.7 3.5 0.00 0.00 0.00 62 1015.0
20260507012526 60 177 1.7 2.6 0.00 0.00 0.00 62 1015.0
20260507012027 59 176 0.9 2.6 0.00 0.00 0.00 62 1014.9
20260507011538 60 176 0.9 4.3 0.00 0.00 0.00 62 1014.6
20260507011026 60 179 1.7 4.3 0.00 0.00 0.00 62 1014.5
20260507010526 60 192 1.7 3.5 0.00 0.00 0.00 63 1014.5
20260507010042 59 185 1.7 3.5 0.00 0.00 0.00 62 1014.6
20260507005527 59 182 1.7 3.5 0.00 0.00 0.00 62 1014.5